UAL193 PGUM-PTRO

Flight info

Callsign UAL193
Flight time 1h 51m
Altitude 34000
Route BUCAT A450 LOEBB IDAAS YP ROR
Aircraft B738/M-SDE2E3FGHIRWXY/LB1

Departure

Time 2026-05-04 06:07
Airport Antonio B. Won Pat International Airport (PGUM)

Arrival

Time 2026-05-04 07:58
Airport Roman Tmetuchl International Airport (PTRO)
Time Latitude Longitude Altitude Speed Heading
2026-05-04 05:25 13.49094 144.80379 313 ft 0 kts 332°
2026-05-04 05:51 13.49090 144.80380 313 ft 2 kts 332°
2026-05-04 05:51 13.49081 144.80385 313 ft 2 kts 332°
2026-05-04 05:52 13.49063 144.80396 313 ft 2 kts 332°
2026-05-04 05:52 13.49052 144.80402 313 ft 0 kts 332°
2026-05-04 05:52 13.49042 144.80408 313 ft 2 kts 319°
2026-05-04 05:52 13.49031 144.80420 313 ft 2 kts 303°
2026-05-04 05:53 13.49024 144.80434 313 ft 2 kts 286°
2026-05-04 05:54 13.49030 144.80479 313 ft 0 kts 241°
2026-05-04 05:58 13.49028 144.80475 313 ft 1 kts 241°
2026-05-04 05:58 13.49019 144.80460 313 ft 3 kts 241°
2026-05-04 05:58 13.49012 144.80444 313 ft 4 kts 241°
2026-05-04 05:58 13.48986 144.80414 313 ft 7 kts 216°
2026-05-04 05:59 13.48925 144.80364 313 ft 9 kts 232°
2026-05-04 05:59 13.48888 144.80304 313 ft 9 kts 238°
2026-05-04 05:59 13.48854 144.80238 313 ft 10 kts 246°
2026-05-04 05:59 13.48819 144.80162 313 ft 12 kts 244°
2026-05-04 06:00 13.48782 144.80081 313 ft 12 kts 244°
2026-05-04 06:00 13.48757 144.80026 313 ft 13 kts 244°
2026-05-04 06:00 13.48714 144.79935 313 ft 14 kts 245°
2026-05-04 06:00 13.48656 144.79807 313 ft 14 kts 245°
2026-05-04 06:01 13.48611 144.79709 313 ft 15 kts 245°
2026-05-04 06:01 13.48564 144.79607 313 ft 12 kts 245°
2026-05-04 06:03 13.48240 144.78902 313 ft 17 kts 245°
2026-05-04 06:03 13.48184 144.78780 313 ft 18 kts 245°
2026-05-04 06:05 13.47870 144.78134 313 ft 9 kts 191°
2026-05-04 06:05 13.47803 144.78207 313 ft 5 kts 65°
2026-05-04 06:05 13.47820 144.78247 313 ft 8 kts 65°
2026-05-04 06:06 13.47863 144.78340 313 ft 42 kts 65°
2026-05-04 06:06 13.48089 144.78833 313 ft 106 kts 65°
2026-05-04 06:06 13.48494 144.79713 314 ft 158 kts 65°
2026-05-04 06:06 13.49160 144.81232 873 ft 177 kts 69°
2026-05-04 06:07 13.49662 144.82437 1462 ft 180 kts 69°
2026-05-04 06:07 13.50213 144.83644 1811 ft 193 kts 65°
2026-05-04 06:07 13.50914 144.84973 1981 ft 219 kts 65°
2026-05-04 06:07 13.51456 144.86497 2494 ft 224 kts 86°
2026-05-04 06:08 13.51383 144.87547 2865 ft 227 kts 107°
2026-05-04 06:08 13.50103 144.89365 3477 ft 247 kts 146°
2026-05-04 06:08 13.49096 144.89916 3970 ft 250 kts 157°
2026-05-04 06:08 13.46754 144.89986 4802 ft 266 kts 197°
2026-05-04 06:09 13.45154 144.88985 5642 ft 270 kts 220°
2026-05-04 06:09 13.44077 144.87370 6354 ft 277 kts 240°
2026-05-04 06:11 13.37562 144.74805 10635 ft 322 kts 240°
2026-05-04 06:11 13.36469 144.72717 10916 ft 338 kts 241°
2026-05-04 06:13 13.28260 144.57053 15287 ft 366 kts 242°
2026-05-04 06:14 13.20794 144.42833 18628 ft 385 kts 242°
2026-05-04 06:14 13.19514 144.40398 19116 ft 389 kts 242°
2026-05-04 06:15 13.18653 144.38759 19465 ft 391 kts 242°
2026-05-04 06:15 13.17360 144.36301 19994 ft 393 kts 242°
2026-05-04 06:15 13.16029 144.33769 20475 ft 396 kts 242°
2026-05-04 06:15 13.14263 144.30414 21109 ft 400 kts 242°
2026-05-04 06:16 13.13352 144.28683 21415 ft 402 kts 242°
2026-05-04 06:16 13.11515 144.25194 22013 ft 406 kts 242°
2026-05-04 06:16 13.10583 144.23425 22260 ft 409 kts 242°
2026-05-04 06:16 13.08688 144.19829 22840 ft 412 kts 242°
2026-05-04 06:17 13.07260 144.17119 23250 ft 415 kts 242°
2026-05-04 06:17 13.05826 144.14398 23645 ft 418 kts 242°
2026-05-04 06:17 13.04376 144.11647 24026 ft 421 kts 242°
2026-05-04 06:17 13.02937 144.08919 24357 ft 425 kts 243°
2026-05-04 06:18 13.01459 144.06120 24728 ft 428 kts 243°
2026-05-04 06:18 13.00480 144.04263 24931 ft 430 kts 243°
2026-05-04 06:18 12.98999 144.01459 25299 ft 433 kts 243°
2026-05-04 06:20 12.87801 143.80247 27550 ft 452 kts 243°
2026-05-04 06:20 12.86266 143.77333 27857 ft 454 kts 243°
2026-05-04 06:21 12.79978 143.65457 28897 ft 462 kts 243°
2026-05-04 06:21 12.78915 143.63458 29112 ft 462 kts 243°
2026-05-04 06:22 12.76821 143.59511 29602 ft 460 kts 243°
2026-05-04 06:22 12.75259 143.56547 29965 ft 459 kts 243°
2026-05-04 06:25 12.54681 143.18750 33777 ft 453 kts 239°
2026-05-04 06:25 12.52965 143.15953 33919 ft 455 kts 239°
2026-05-04 06:26 12.51264 143.13147 33927 ft 455 kts 239°
2026-05-04 06:26 12.48456 143.08420 33926 ft 452 kts 240°
2026-05-04 06:27 12.40104 142.94428 33926 ft 445 kts 240°
2026-05-04 06:28 12.36802 142.88884 33926 ft 441 kts 240°
2026-05-04 06:28 12.33013 142.82548 33926 ft 435 kts 239°
2026-05-04 06:29 12.29804 142.77182 33926 ft 433 kts 239°
2026-05-04 06:29 12.27121 142.72699 33927 ft 433 kts 239°
2026-05-04 06:30 12.23358 142.66414 33926 ft 434 kts 239°
2026-05-04 06:30 12.20682 142.61948 33926 ft 434 kts 239°
2026-05-04 06:31 12.16916 142.55666 33926 ft 433 kts 239°
2026-05-04 06:31 12.13712 142.50325 33926 ft 433 kts 239°
2026-05-04 06:33 12.01434 142.29884 33926 ft 434 kts 239°
2026-05-04 06:34 11.97702 142.23682 33926 ft 433 kts 239°
2026-05-04 06:34 11.94491 142.18347 33926 ft 433 kts 239°
2026-05-04 06:36 11.82193 141.97942 33926 ft 433 kts 239°
2026-05-04 06:37 11.78458 141.91753 33926 ft 433 kts 239°
2026-05-04 06:37 11.75246 141.86433 33926 ft 433 kts 239°
2026-05-04 06:38 11.72033 141.81116 33926 ft 433 kts 239°
2026-05-04 06:40 11.59147 141.59817 33926 ft 433 kts 239°
2026-05-04 06:40 11.55926 141.54500 33913 ft 433 kts 239°
2026-05-04 06:41 11.52729 141.49226 33891 ft 434 kts 239°
2026-05-04 06:41 11.49530 141.43951 33868 ft 433 kts 239°
2026-05-04 06:42 11.46327 141.38672 33848 ft 434 kts 239°
2026-05-04 06:44 11.34187 141.18422 33835 ft 434 kts 239°
2026-05-04 06:44 11.30546 141.12209 33835 ft 433 kts 239°
2026-05-04 06:45 11.27434 141.06905 33835 ft 436 kts 240°
2026-05-04 06:45 11.24276 141.01523 33835 ft 445 kts 240°
2026-05-04 06:46 11.21049 140.96030 33834 ft 454 kts 240°
2026-05-04 06:46 11.17789 140.90485 33835 ft 459 kts 239°
2026-05-04 06:48 11.04890 140.68574 33835 ft 458 kts 239°
2026-05-04 06:50 10.92489 140.47553 33835 ft 467 kts 239°
2026-05-04 06:51 10.88660 140.41069 33835 ft 470 kts 239°
2026-05-04 06:51 10.85353 140.35474 33835 ft 472 kts 239°
2026-05-04 06:52 10.82639 140.30884 33835 ft 471 kts 239°
2026-05-04 06:52 10.79307 140.25252 33835 ft 471 kts 239°
2026-05-04 06:53 10.75449 140.18735 33835 ft 471 kts 239°
2026-05-04 06:53 10.72158 140.13179 33835 ft 471 kts 239°
2026-05-04 06:54 10.69385 140.08499 33835 ft 471 kts 239°
2026-05-04 06:54 10.65551 140.02033 33835 ft 470 kts 239°
2026-05-04 06:55 10.62140 139.96283 33835 ft 470 kts 239°
2026-05-04 06:55 10.58705 139.90494 33835 ft 471 kts 239°
2026-05-04 06:57 10.44979 139.67398 33835 ft 471 kts 239°
2026-05-04 06:58 10.41544 139.61626 33835 ft 470 kts 239°
2026-05-04 06:58 10.38125 139.55884 33835 ft 470 kts 239°
2026-05-04 06:59 10.34696 139.50128 33835 ft 470 kts 239°
2026-05-04 06:59 10.31275 139.44386 33835 ft 470 kts 239°
2026-05-04 07:01 10.17778 139.21771 33835 ft 470 kts 239°
2026-05-04 07:02 10.14944 139.17027 33835 ft 469 kts 239°
2026-05-04 07:02 10.11015 139.10457 33835 ft 467 kts 239°
2026-05-04 07:03 10.07656 139.04842 33835 ft 465 kts 239°
2026-05-04 07:03 10.04296 138.99226 33835 ft 462 kts 239°
2026-05-04 07:04 10.00957 138.93649 33835 ft 461 kts 239°
2026-05-04 07:04 9.97682 138.88181 33835 ft 461 kts 239°
2026-05-04 07:05 9.94391 138.82689 33835 ft 461 kts 239°
2026-05-04 07:05 9.91097 138.77196 33835 ft 461 kts 239°
2026-05-04 07:06 9.86667 138.69812 33835 ft 461 kts 239°
2026-05-04 07:07 9.82786 138.63347 33835 ft 461 kts 239°
2026-05-04 07:09 9.70059 138.42171 33835 ft 461 kts 239°
2026-05-04 07:09 9.66166 138.35700 33835 ft 461 kts 239°
2026-05-04 07:10 9.62834 138.30164 33835 ft 461 kts 239°
2026-05-04 07:12 9.49315 138.07730 33835 ft 461 kts 239°
2026-05-04 07:12 9.45933 138.02040 33835 ft 461 kts 239°
2026-05-04 07:13 9.42538 137.96323 33835 ft 461 kts 239°
2026-05-04 07:13 9.39146 137.90620 33835 ft 460 kts 239°
2026-05-04 07:14 9.30731 137.76486 34183 ft 461 kts 239°
2026-05-04 07:15 9.29047 137.73659 34342 ft 463 kts 239°
2026-05-04 07:15 9.27343 137.70799 34587 ft 463 kts 239°
2026-05-04 07:15 9.25648 137.67956 34830 ft 463 kts 239°
2026-05-04 07:15 9.23970 137.65141 35098 ft 463 kts 239°
2026-05-04 07:16 9.22279 137.62306 35342 ft 462 kts 239°
2026-05-04 07:16 9.20591 137.59477 35567 ft 462 kts 239°
2026-05-04 07:16 9.18897 137.56636 35811 ft 462 kts 239°
2026-05-04 07:16 9.17792 137.54784 35829 ft 464 kts 239°
2026-05-04 07:17 9.13833 137.48152 35834 ft 462 kts 239°
2026-05-04 07:17 9.10459 137.42503 35836 ft 460 kts 239°
2026-05-04 07:18 9.07119 137.36912 35835 ft 461 kts 239°
2026-05-04 07:18 9.03772 137.31313 35835 ft 460 kts 238°
2026-05-04 07:19 9.00459 137.25775 35835 ft 459 kts 238°
2026-05-04 07:19 8.97132 137.20215 35834 ft 458 kts 238°
2026-05-04 07:20 8.93786 137.14621 35835 ft 458 kts 238°
2026-05-04 07:20 8.90453 137.09052 35835 ft 458 kts 238°
2026-05-04 07:22 8.76839 136.86340 35835 ft 459 kts 238°
2026-05-04 07:23 8.73417 136.80644 35835 ft 459 kts 238°
2026-05-04 07:23 8.70011 136.74973 35835 ft 459 kts 238°
2026-05-04 07:24 8.66589 136.69278 35835 ft 459 kts 238°
2026-05-04 07:24 8.63733 136.64525 35835 ft 459 kts 238°
2026-05-04 07:26 8.50291 136.42178 35835 ft 459 kts 238°
2026-05-04 07:27 8.46373 136.35672 35836 ft 459 kts 238°
2026-05-04 07:27 8.43043 136.30145 35841 ft 459 kts 238°
2026-05-04 07:28 8.39694 136.24587 35846 ft 459 kts 238°
2026-05-04 07:28 8.36910 136.19971 35850 ft 459 kts 238°
2026-05-04 07:29 8.33037 136.13550 35853 ft 459 kts 238°
2026-05-04 07:29 8.29710 136.08035 35853 ft 459 kts 238°
2026-05-04 07:30 8.26403 136.02557 35853 ft 459 kts 238°
2026-05-04 07:30 8.23078 135.97051 35853 ft 459 kts 238°
2026-05-04 07:31 8.19737 135.91521 35853 ft 459 kts 238°
2026-05-04 07:33 8.06873 135.70247 35853 ft 459 kts 238°
2026-05-04 07:33 8.02933 135.63737 35853 ft 459 kts 238°
2026-05-04 07:34 7.99566 135.58177 35853 ft 459 kts 238°
2026-05-04 07:34 7.96190 135.52603 35839 ft 458 kts 238°
2026-05-04 07:35 7.94508 135.49828 35245 ft 456 kts 238°
2026-05-04 07:35 7.92826 135.47052 34472 ft 457 kts 238°
2026-05-04 07:35 7.91131 135.44257 33653 ft 458 kts 238°
2026-05-04 07:35 7.89457 135.41495 32947 ft 456 kts 238°
2026-05-04 07:36 7.87788 135.38744 32363 ft 452 kts 238°
2026-05-04 07:36 7.86160 135.36061 31769 ft 448 kts 238°
2026-05-04 07:38 7.74965 135.17619 27593 ft 423 kts 239°
2026-05-04 07:38 7.73430 135.15091 27012 ft 419 kts 239°
2026-05-04 07:38 7.72403 135.13402 26622 ft 417 kts 239°
2026-05-04 07:38 7.70361 135.10042 25844 ft 412 kts 239°
2026-05-04 07:39 7.68835 135.07530 25260 ft 409 kts 240°
2026-05-04 07:39 7.67323 135.05045 24682 ft 405 kts 240°
2026-05-04 07:39 7.65831 135.02589 24108 ft 401 kts 240°
2026-05-04 07:39 7.64353 135.00159 23538 ft 397 kts 240°
2026-05-04 07:40 7.62909 134.97784 22980 ft 393 kts 240°
2026-05-04 07:40 7.61454 134.95392 22416 ft 389 kts 240°
2026-05-04 07:40 7.60014 134.93025 21859 ft 385 kts 240°
2026-05-04 07:40 7.58601 134.90704 21308 ft 381 kts 240°
2026-05-04 07:41 7.57220 134.88435 20771 ft 377 kts 240°
2026-05-04 07:41 7.55853 134.86188 20235 ft 374 kts 240°
2026-05-04 07:41 7.54498 134.83962 19704 ft 370 kts 240°
2026-05-04 07:41 7.53155 134.81755 19175 ft 366 kts 240°
2026-05-04 07:42 7.51818 134.79561 18649 ft 362 kts 240°
2026-05-04 07:42 7.50511 134.77414 18240 ft 355 kts 240°
2026-05-04 07:42 7.49209 134.75278 18035 ft 342 kts 240°
2026-05-04 07:42 7.48375 134.73909 17844 ft 336 kts 240°
2026-05-04 07:43 7.46737 134.71217 17252 ft 331 kts 240°
2026-05-04 07:43 7.45524 134.69226 16831 ft 327 kts 240°
2026-05-04 07:43 7.44334 134.67273 16374 ft 325 kts 240°
2026-05-04 07:43 7.43125 134.65289 15895 ft 322 kts 240°
2026-05-04 07:44 7.41951 134.63362 15427 ft 320 kts 240°
2026-05-04 07:44 7.40766 134.61418 14954 ft 318 kts 240°
2026-05-04 07:44 7.39588 134.59486 14520 ft 315 kts 240°
2026-05-04 07:44 7.38436 134.57599 14265 ft 305 kts 240°
2026-05-04 07:45 7.37458 134.55734 14109 ft 292 kts 250°
2026-05-04 07:45 7.36957 134.53691 13790 ft 285 kts 266°
2026-05-04 07:45 7.36940 134.51654 13549 ft 276 kts 272°
2026-05-04 07:45 7.36976 134.49677 13454 ft 263 kts 271°
2026-05-04 07:46 7.36987 134.47818 13283 ft 254 kts 271°
2026-05-04 07:46 7.37010 134.45985 12998 ft 250 kts 271°
2026-05-04 07:46 7.37036 134.44165 12671 ft 248 kts 271°
2026-05-04 07:46 7.37061 134.42369 12339 ft 246 kts 271°
2026-05-04 07:47 7.37087 134.40601 12000 ft 244 kts 271°
2026-05-04 07:47 7.37114 134.38821 11655 ft 243 kts 271°
2026-05-04 07:47 7.37139 134.37068 11210 ft 247 kts 272°
2026-05-04 07:49 7.37112 134.25647 10512 ft 205 kts 264°
2026-05-04 07:49 7.36680 134.24304 10489 ft 195 kts 244°
2026-05-04 07:49 7.35860 134.23196 10495 ft 200 kts 227°
2026-05-04 07:50 7.34688 134.22391 10494 ft 205 kts 206°
2026-05-04 07:50 7.33268 134.22018 10496 ft 209 kts 187°
2026-05-04 07:50 7.31766 134.22154 10388 ft 217 kts 166°
2026-05-04 07:50 7.30398 134.22850 9808 ft 224 kts 141°
2026-05-04 07:51 7.29340 134.24002 9245 ft 227 kts 121°
2026-05-04 07:51 7.28761 134.25453 8673 ft 223 kts 97°
2026-05-04 07:51 7.28752 134.26955 8116 ft 218 kts 77°
2026-05-04 07:51 7.29237 134.28400 7533 ft 213 kts 57°
2026-05-04 07:52 7.30172 134.29529 6968 ft 206 kts 36°
2026-05-04 07:52 7.31402 134.30257 6408 ft 202 kts 20°
2026-05-04 07:52 7.32790 134.30605 5842 ft 199 kts
2026-05-04 07:52 7.34144 134.30945 5351 ft 194 kts 26°
2026-05-04 07:53 7.34852 134.31523 5030 ft 192 kts 49°
2026-05-04 07:54 7.36933 134.39696 2828 ft 145 kts 86°
2026-05-04 07:55 7.36940 134.41042 2546 ft 142 kts 88°
2026-05-04 07:55 7.36933 134.42044 2382 ft 142 kts 88°
2026-05-04 07:55 7.36897 134.42731 2248 ft 140 kts 90°
2026-05-04 07:55 7.36875 134.44063 2005 ft 143 kts 87°
2026-05-04 07:56 7.36875 134.45085 1798 ft 141 kts 88°
2026-05-04 07:56 7.36846 134.46074 1606 ft 141 kts 91°
2026-05-04 07:56 7.36833 134.47087 1416 ft 141 kts 90°
2026-05-04 07:56 7.36820 134.48077 1218 ft 141 kts 88°
2026-05-04 07:57 7.36802 134.49077 1045 ft 140 kts 89°
2026-05-04 07:57 7.36788 134.50056 841 ft 142 kts 91°
2026-05-04 07:57 7.36772 134.50717 740 ft 136 kts 90°
2026-05-04 07:57 7.36774 134.51701 551 ft 135 kts 88°
2026-05-04 07:58 7.36756 134.53015 371 ft 138 kts 91°
2026-05-04 07:58 7.36744 134.53639 185 ft 126 kts 88°
2026-05-04 07:58 7.36734 134.54443 184 ft 49 kts 94°
2026-05-04 07:58 7.36725 134.54697 184 ft 31 kts 91°
2026-05-04 07:59 7.36721 134.54916 184 ft 30 kts 91°
2026-05-04 07:59 7.36716 134.55138 184 ft 30 kts 92°
2026-05-04 07:59 7.36711 134.55272 184 ft 9 kts 95°
2026-05-04 07:59 7.36678 134.55335 184 ft 10 kts 115°
2026-05-04 08:00 7.36702 134.55396 184 ft 9 kts
2026-05-04 08:00 7.36721 134.55330 184 ft 11 kts 268°
2026-05-04 08:00 7.36718 134.55241 184 ft 13 kts 268°
2026-05-04 08:02 7.36735 134.54326 184 ft 20 kts 271°
2026-05-04 08:02 7.36739 134.54169 184 ft 22 kts 271°
2026-05-04 08:02 7.36742 134.54013 184 ft 21 kts 270°
2026-05-04 08:03 7.36745 134.53870 184 ft 16 kts 271°
2026-05-04 08:03 7.36748 134.53790 184 ft 9 kts 278°
2026-05-04 08:03 7.36795 134.53766 184 ft 5 kts 26°
2026-05-04 08:03 7.36825 134.53769 184 ft 4 kts 359°
2026-05-04 08:04 7.36857 134.53757 184 ft 5 kts 310°
2026-05-04 08:04 7.36892 134.53743 184 ft 5 kts
2026-05-04 08:04 7.36914 134.53743 184 ft 0 kts